Weather History for Lexington, KY

Change the Weather History Date:

Saturday, November 23, 2013

  Actual Average Record
Temperature  
Mean Temperature 34 °F 43 °F  
Max Temperature 44 °F 52 °F 73 °F (1931)
Min Temperature 23 °F 35 °F 12 °F (1970)
Degree Days  
Heating Degree Days 31 22  
Month to date heating degree days 405 398  
Since 1 July heating degree days 690 724  
Cooling Degree Days 0 0  
Month to date cooling degree days 0 0  
Year to date cooling degree days 1245 1188  
Moisture  
Dew Point 24 °F    
Average Humidity 57    
Maximum Humidity 85    
Minimum Humidity 29    
Precipitation  
Precipitation 0.00 in 0.13 in 2.05 in (1875)
Month to date precipitation 2.19 2.65  
Year to date precipitation 53.69 40.36  
Snow  
Snow 0.00 in 0.00 in 1.50 in (1950)
Month to date snowfall 0.4 0.1  
Since 1 July snowfall 0.4 0.1  
Since 1 September snowfall 0.4 0.1  
Snow Depth 0.00 in    
Sea Level Pressure  
Sea Level Pressure 30.41 in    
Wind  
Wind Speed 11 mph (NNW)    
Max Wind Speed 22 mph    
Max Gust Speed 28 mph    
Visibility 10 miles    
Events      
T = Trace of Precipitation, MM = Missing Value Source: NWS Daily Summary

Daily Weather History Graph

Daily Weather History Graph

Search for Another Location

Airport:

Trip Planner

Search our weather history database for the weather conditions in past years. The results will help you decide how hot, cold, wet, or windy it might be!

Date:

Astronomy

Nov. 23, 2013 Rise Set
Actual Time 7:27 AM EST 5:21 PM EST
Civil Twilight 6:59 AM EST 5:50 PM EST
Nautical Twilight 6:27 AM EST 6:22 PM EST
Astronomical Twilight 5:55 AM EST 6:53 PM EST
Moon 10:47 PM EST (11/23) 11:46 AM EST (11/23)
Length of Visible Light 10h 50m
Length of Day
9h 53m
Waning Gibbous, 70% of the Moon is Illuminated
Nov 23
Waning Gibbous
Nov 25
Last Quarter
Dec 2
New
Dec 9
First Quarter
Dec 17
Full

Hourly Weather History & Observations

Time (EST) Temp. Windchill Dew Point Humidity Pressure Visibility Wind Dir Wind Speed Gust Speed Precip Events Conditions
12:54 AM 41.0 °F 35.2 °F 33.1 °F 73% 30.34 in 10.0 mi North 9.2 mph - N/A   Overcast
1:54 AM 39.9 °F 34.5 °F 33.1 °F 77% 30.34 in 10.0 mi North 8.1 mph - N/A   Overcast
2:54 AM 39.0 °F 32.3 °F 32.0 °F 76% 30.35 in 10.0 mi North 10.4 mph - N/A   Overcast
3:19 AM 37.9 °F 30.5 °F 30.0 °F 73% 30.35 in 10.0 mi North 11.5 mph - N/A   Scattered Clouds
3:54 AM 37.0 °F 31.6 °F 30.0 °F 76% 30.36 in 10.0 mi NNW 6.9 mph - N/A   Clear
4:22 AM 37.0 °F 31.6 °F 30.0 °F 76% 30.34 in 10.0 mi NNW 6.9 mph - N/A   Mostly Cloudy
4:54 AM 36.0 °F 30.3 °F 30.0 °F 79% 30.36 in 10.0 mi North 6.9 mph - N/A   Overcast
5:54 AM 34.0 °F 28.8 °F 28.9 °F 82% 30.38 in 10.0 mi NNW 5.8 mph - N/A   Overcast
6:20 AM 33.1 °F 26.1 °F 28.9 °F 85% 30.36 in 10.0 mi NNW 8.1 mph - N/A   Scattered Clouds
6:54 AM 33.1 °F 27.7 °F 28.0 °F 82% 30.39 in 10.0 mi NNW 5.8 mph - N/A   Clear
7:54 AM 32.0 °F 26.4 °F 28.9 °F 88% 30.41 in 10.0 mi NW 5.8 mph - N/A   Mostly Cloudy
8:54 AM 33.1 °F 26.9 °F 28.9 °F 85% 30.42 in 10.0 mi NNW 6.9 mph - N/A   Overcast
9:22 AM 33.1 °F 25.5 °F 28.9 °F 85% 30.40 in 10.0 mi NNW 9.2 mph - N/A   Overcast
9:44 AM 34.0 °F 24.6 °F 30.0 °F 85% 30.42 in 10.0 mi North 13.8 mph - N/A   Overcast
9:54 AM 34.0 °F 26.0 °F 28.9 °F 82% 30.43 in 10.0 mi North 10.4 mph - N/A   Overcast
10:54 AM 35.1 °F 27.9 °F 28.9 °F 78% 30.44 in 10.0 mi NW 9.2 mph - N/A   Overcast
11:54 AM 39.0 °F 32.8 °F 28.9 °F 67% 30.40 in 10.0 mi WNW 9.2 mph - N/A   Partly Cloudy
12:54 PM 42.1 °F 36.1 °F 23.0 °F 47% 30.37 in 10.0 mi WNW 10.4 mph - N/A   Clear
1:54 PM 43.0 °F 37.7 °F 19.9 °F 40% 30.35 in 10.0 mi WNW 9.2 mph - N/A   Clear
2:54 PM 42.1 °F 34.5 °F 12.0 °F 29% 30.35 in 10.0 mi NNW 15.0 mph - N/A   Clear
3:54 PM 41.0 °F 33.1 °F 16.0 °F 36% 30.37 in 10.0 mi WNW 15.0 mph 24.2 mph N/A   Clear
4:54 PM 35.1 °F 23.8 °F 19.0 °F 52% 30.41 in 10.0 mi NNW 20.7 mph 28.8 mph N/A   Clear
5:54 PM 30.9 °F 20.7 °F 17.1 °F 57% 30.44 in 10.0 mi NNW 13.8 mph - N/A   Clear
6:54 PM 30.9 °F 22.2 °F 18.0 °F 59% 30.47 in 10.0 mi NNW 10.4 mph - N/A   Mostly Cloudy
7:54 PM 28.9 °F 17.3 °F 14.0 °F 54% 30.49 in 10.0 mi NNW 16.1 mph - N/A   Mostly Cloudy
8:54 PM 27.0 °F 14.3 °F 12.9 °F 56% 30.52 in 10.0 mi North 17.3 mph - N/A   Partly Cloudy
9:54 PM 26.1 °F 13.1 °F 10.9 °F 53% 30.53 in 10.0 mi NNW 17.3 mph 25.3 mph N/A   Mostly Cloudy
10:54 PM 24.1 °F 13.7 °F 12.0 °F 60% 30.55 in 10.0 mi NNW 10.4 mph - N/A   Clear
11:54 PM 23.0 °F 11.7 °F 14.0 °F 68% 30.56 in 10.0 mi NNW 11.5 mph - N/A   Mostly Cloudy